Wind_Speed
11 11 11 10 9 9 8 7 7 6 6 6 6 6 5 5 6 7 8 7 7 7 7 6 7 6 6 6 5 5 5 5 5 4 4 5 5 4 4 4 4 3 3
12 12 11 10 9 9 8 7 7 6 7 6 6 5 5 5 5 7 7 7 6 6 6 6 6 6 6 5 5 4 4 4 4 3 4 4 4 4 4 3 4 3 3
12 12 11 11 10 9 9 8 7 6 6 6 6 5 5 5 5 6 5 5 5 5 5 5 5 5 5 5 5 4 4 3 3 3 3 3 3 3 3 3 3 4 3
12 12 11 11 10 9 9 8 7 7 7 6 6 5 5 5 5 5 5 4 4 4 4 4 4 4 4 4 4 3 3 3 2 2 2 2 3 3 3 3 3 3 3
12 11 11 10 10 9 9 8 7 7 7 7 6 5 5 4 4 3 3 3 4 3 4 4 4 4 4 4 4 3 3 2 2 2 2 2 3 3 3 3 3 3 2
12 11 10 10 10 9 9 8 8 7 7 7 6 5 5 4 3 3 2 3 3 3 3 3 4 4 4 4 3 3 3 3 2 2 2 2 3 3 3 3 3 2 2
11 11 10 10 9 9 9 8 8 8 7 7 6 5 5 4 2 2 3 3 2 3 4 4 4 4 4 4 3 3 3 3 3 3 3 3 3 3 3 3 3 3 3
11 11 11 10 10 9 9 9 8 8 8 7 7 5 5 4 3 2 2 2 2 3 3 4 4 4 3 3 4 4 4 3 4 4 4 4 4 4 4 4 3 2 3
11 11 11 11 10 10 10 9 8 8 8 7 7 6 5 4 3 2 2 1 2 2 2 3 4 4 4 3 4 4 4 4 4 5 5 4 4 4 4 4 4 3 3
11 11 12 12 10 10 10 10 9 8 8 7 6 6 5 4 3 3 2 0 2 2 2 2 3 3 3 3 4 4 5 5 5 4 5 5 5 5 5 4 4 4 3
12 12 12 11 11 11 11 10 9 8 9 8 7 6 5 4 3 3 3 2 0 1 2 3 3 4 3 3 3 5 5 5 5 5 5 5 5 5 5 5 5 5 4
11 12 12 11 11 11 11 11 10 9 9 8 7 7 6 5 5 4 4 3 2 1 1 2 3 3 3 4 5 5 4 4 5 5 5 5 5 5 5 6 6 5 5
11 11 11 11 11 11 11 11 10 10 9 8 8 8 7 6 5 5 4 3 3 2 2 3 3 3 3 3 4 5 5 4 5 6 6 6 6 6 6 7 6 6 6
11 11 11 11 11 11 11 11 10 10 9 9 9 8 8 7 5 5 5 4 3 3 3 3 3 3 3 4 5 5 6 6 6 7 7 7 7 8 8 8 8 9 9
11 11 10 9 10 10 10 10 10 10 10 10 9 9 8 8 6 6 6 5 4 4 4 5 4 4 5 5 6 6 7 8 8 8 8 8 8 9 10 10 10 9 10
10 10 9 9 9 9 10 10 10 10 10 10 9 9 9 8 8 7 7 7 6 5 5 5 5 5 4 5 6 6 7 8 8 9 9 9 10 10 11 11 10 10 10
9 9 9 8 8 9 9 9 9 9 9 9 9 9 9 8 8 8 7 7 7 5 5 5 5 5 5 5 6 6 7 8 8 9 9 10 11 11 11 11 11 11 11
9 9 9 8 8 9 9 9 8 8 8 8 8 9 9 8 8 9 8 8 7 6 6 5 5 6 6 6 6 7 7 7 8 9 9 9 11 11 11 11 12 11 11
9 9 9 8 8 8 9 9 9 8 9 9 8 9 10 10 10 10 10 9 8 7 6 6 6 7 7 8 8 8 8 8 9 10 10 11 11 11 11 12 13 12 12
8 9 9 8 8 8 9 9 9 9 9 9 9 9 9 10 10 10 11 10 9 9 8 7 8 8 8 8 9 9 9 10 11 11 12 12 12 12 12 13 14 13 14
8 9 9 9 8 8 8 8 9 9 9 9 9 9 9 9 10 10 11 11 10 10 9 9 9 9 9 9 9 9 9 10 11 11 11 11 12 13 13 14 14 14 15
8 9 9 9 9 8 8 8 9 9 10 10 10 9 9 9 10 11 11 11 11 11 10 10 10 10 10 10 10 10 10 11 11 12 12 12 13 13 13 14 15 15 16
7 8 8 9 9 9 9 9 9 9 10 10 10 10 10 10 11 12 12 12 11 11 11 10 10 10 10 10 10 11 11 12 12 13 13 14 14 14 15 15 15 16 17
7 8 9 9 9 9 9 10 10 10 10 10 11 11 11 11 11 12 13 12 12 11 12 12 12 11 11 12 12 12 12 12 13 14 15 15 16 16 17 16 17 17 17
8 8 9 9 9 10 10 10 10 10 11 11 12 12 12 13 13 13 14 14 13 13 13 13 14 13 12 12 13 13 13 13 14 14 15 15 16 17 17 17 17 17 17
9 9 9 10 10 10 11 10 10 11 11 12 13 13 14 14 14 14 14 15 14 14 14 14 14 15 14 13 13 14 14 14 14 14 15 15 15 16 16 17 17 18 18
Wind_Direction
64 63 63 68 70 70 69 71 70 71 73 77 83 91 100 109 117 130 137 139 142 142 142 137 138 140 138 140 144 142 138 136 134 134 138 136 135 136 138 145 145 148 140
63 63 63 67 71 68 67 72 74 73 77 80 84 94 101 110 119 131 134 137 137 142 146 141 142 145 144 143 146 146 145 142 141 141 147 149 146 149 149 147 149 148 146
64 63 64 67 69 68 69 72 73 73 77 80 86 97 105 111 120 131 133 136 143 150 152 152 153 156 153 147 147 144 143 141 150 155 156 164 168 164 155 149 148 148 153
63 62 64 67 68 67 68 69 69 71 75 80 86 99 109 116 123 130 136 141 148 157 162 166 170 170 164 159 158 157 157 159 159 161 160 178 178 176 167 162 159 155 157
63 61 62 65 66 66 67 69 70 73 74 76 83 97 110 116 122 126 138 149 157 161 169 177 184 180 176 174 175 176 172 172 181 182 171 168 176 182 183 183 171 164 161
62 61 60 60 62 64 65 66 65 67 71 75 78 87 96 105 115 114 121 137 162 180 181 185 188 185 184 185 187 185 181 183 184 189 184 182 178 185 197 194 182 179 189
59 57 57 57 57 61 63 64 65 63 67 70 72 76 82 89 89 91 116 131 151 174 190 190 187 188 194 202 203 205 202 202 203 201 197 194 196 197 191 189 182 183 188
57 56 55 54 56 58 58 60 66 65 64 64 65 68 72 79 85 91 108 147 159 167 179 192 202 203 211 220 221 221 216 221 225 218 215 211 209 207 204 195 190 192 185
56 53 52 51 54 55 53 55 60 62 62 63 66 66 67 65 68 77 93 149 176 176 183 199 208 220 229 229 218 218 225 232 236 231 226 225 224 221 219 210 203 205 207
58 56 55 55 54 54 53 52 54 58 60 60 60 57 54 56 55 52 47 71 195 193 209 239 233 234 235 234 232 229 233 235 241 234 226 228 232 232 227 221 220 223 225
62 57 54 57 56 55 53 51 53 57 56 54 50 48 50 50 49 42 34 26 65 221 243 251 247 239 249 254 255 250 238 244 247 244 238 233 237 237 236 232 234 241 239
63 58 54 55 54 51 49 47 49 52 52 48 44 39 36 42 42 35 31 31 28 334 272 260 253 254 262 258 256 258 253 255 259 252 249 244 241 236 236 239 239 241 245
58 58 55 54 52 47 44 44 46 45 45 45 43 39 35 35 33 29 23 23 16 351 304 287 274 272 276 268 264 266 265 255 248 249 249 252 246 240 244 247 249 253 254
54 53 51 49 47 43 40 40 41 38 38 36 33 33 33 31 32 27 18 17 8 356 340 299 295 288 286 277 275 273 271 266 256 252 253 261 256 250 250 254 256 258 258
51 50 48 46 42 39 38 37 35 33 33 32 30 25 26 27 25 20 13 3 355 346 337 336 320 301 289 282 280 281 277 264 258 251 256 263 260 257 255 255 255 256 259
46 45 43 42 42 38 36 35 32 28 28 28 26 28 25 24 22 16 11 360 348 343 343 337 328 310 293 287 288 282 279 268 262 261 261 261 260 258 255 256 257 257 259
35 36 34 34 37 34 32 29 28 26 25 26 25 24 22 21 17 10 5 360 352 338 325 322 318 313 307 303 297 290 283 279 278 273 267 263 263 264 260 260 259 258 258
22 21 22 24 23 23 22 21 21 22 19 16 16 14 14 14 12 9 5 0 352 342 329 324 321 315 312 309 302 293 289 287 282 277 270 269 269 265 261 261 259 258 258
14 12 11 13 12 13 14 17 20 19 18 16 15 13 14 11 6 4 3 359 352 343 330 320 313 307 305 304 296 288 284 279 276 276 273 272 271 267 264 262 262 260 258
10 8 8 9 7 6 8 13 16 15 15 15 15 13 11 6 2 356 354 350 346 340 329 316 312 309 307 303 300 296 288 284 281 281 277 272 271 271 270 265 262 259 258
4 360 -0 1 2 2 4 6 7 7 5 5 4 3 0 356 351 348 345 342 338 336 329 320 313 310 309 308 305 303 296 290 284 279 275 272 272 271 271 270 267 262 260
356 354 352 352 354 358 0 360 1 2 358 355 354 353 353 351 347 345 342 336 331 328 322 316 312 309 307 307 304 301 299 293 287 282 279 275 273 270 269 270 268 264 263
351 350 348 346 346 347 350 352 353 353 351 350 348 345 345 344 341 339 336 331 329 326 323 319 313 307 305 307 305 303 299 295 291 285 281 278 274 271 270 268 268 265 264
339 340 341 343 343 340 341 345 347 347 345 343 341 339 338 336 334 335 335 330 328 325 326 324 314 307 302 301 302 302 300 295 290 287 282 280 277 275 272 268 267 265 263
325 329 333 334 335 334 333 338 338 338 338 337 337 337 335 337 335 333 335 332 330 325 323 322 322 314 304 299 299 300 298 295 291 288 286 283 280 278 273 271 268 265 261
312 316 322 324 326 326 326 329 328 329 332 333 333 333 332 333 333 329 329 331 328 323 321 321 320 316 310 303 301 299 296 294 295 292 289 284 283 281 277 274 269 265 263
Height
5893 5892 5892 5891 5891 5891 5891 5891 5891 5891 5891 5891 5891 5890 5891 5891 5891 5890 5891 5892 5893 5894 5894 5894 5895 5896 5896 5897 5897 5898 5898 5899 5899 5899 5899 5899 5899 5900 5900 5900 5900 5900 5900
5895 5894 5893 5893 5893 5892 5892 5892 5893 5892 5892 5892 5892 5892 5892 5892 5892 5892 5893 5894 5894 5894 5895 5895 5896 5896 5897 5898 5898 5898 5899 5899 5899 5899 5900 5900 5900 5900 5900 5900 5900 5900 5900
5896 5896 5895 5895 5894 5894 5894 5893 5894 5894 5894 5893 5893 5893 5893 5893 5893 5893 5894 5895 5895 5895 5896 5896 5897 5897 5898 5898 5898 5899 5899 5899 5900 5900 5900 5900 5900 5900 5900 5900 5900 5900 5901
5898 5897 5897 5896 5896 5895 5895 5895 5895 5895 5895 5895 5894 5894 5894 5894 5894 5895 5895 5895 5896 5896 5896 5897 5897 5898 5898 5898 5899 5899 5900 5900 5900 5900 5900 5900 5900 5900 5900 5900 5900 5900 5901
5899 5899 5899 5898 5897 5897 5897 5896 5896 5896 5896 5896 5895 5895 5895 5895 5895 5895 5895 5896 5896 5896 5897 5897 5898 5898 5899 5899 5899 5900 5900 5900 5900 5901 5900 5900 5900 5901 5900 5900 5900 5901 5901
5901 5901 5900 5900 5899 5898 5898 5898 5897 5897 5897 5897 5896 5896 5896 5896 5896 5896 5896 5896 5896 5897 5897 5897 5898 5899 5899 5899 5900 5900 5900 5900 5901 5901 5901 5900 5900 5900 5901 5901 5901 5901 5901
5903 5902 5901 5901 5900 5900 5900 5899 5899 5898 5898 5898 5897 5897 5897 5897 5896 5896 5896 5896 5896 5897 5897 5898 5898 5899 5899 5899 5900 5900 5900 5900 5900 5901 5901 5901 5901 5901 5900 5901 5901 5901 5901
5904 5904 5903 5902 5902 5901 5901 5900 5900 5900 5899 5899 5898 5898 5898 5897 5897 5897 5896 5896 5896 5896 5897 5897 5898 5898 5898 5899 5899 5900 5900 5900 5900 5900 5900 5900 5900 5901 5900 5900 5901 5901 5901
5905 5905 5904 5903 5903 5902 5902 5902 5901 5901 5900 5900 5899 5899 5898 5898 5897 5897 5897 5896 5896 5896 5896 5897 5897 5898 5898 5898 5898 5899 5899 5899 5899 5900 5900 5900 5900 5900 5900 5900 5900 5900 5900
5907 5906 5905 5905 5904 5904 5904 5903 5902 5902 5901 5900 5900 5899 5899 5898 5897 5897 5897 5897 5896 5896 5896 5896 5896 5897 5897 5898 5898 5898 5898 5898 5898 5899 5899 5899 5899 5900 5900 5900 5900 5900 5900
5908 5907 5907 5907 5906 5906 5905 5904 5903 5903 5902 5901 5901 5900 5899 5898 5898 5897 5897 5896 5896 5895 5895 5895 5895 5896 5896 5896 5896 5897 5897 5897 5897 5897 5898 5898 5898 5899 5899 5899 5899 5899 5899
5910 5909 5908 5908 5908 5907 5907 5906 5905 5904 5903 5902 5901 5900 5899 5899 5898 5897 5897 5896 5896 5895 5895 5895 5895 5895 5895 5896 5896 5896 5896 5896 5896 5897 5897 5897 5897 5897 5898 5898 5898 5898 5898
5911 5911 5910 5910 5909 5909 5908 5907 5906 5905 5904 5903 5902 5901 5900 5899 5898 5897 5896 5896 5896 5895 5895 5894 5894 5894 5894 5895 5895 5895 5895 5895 5895 5896 5896 5896 5896 5896 5896 5896 5896 5896 5897
5913 5912 5912 5911 5910 5910 5909 5908 5907 5906 5905 5904 5902 5901 5900 5899 5898 5898 5897 5896 5896 5895 5894 5894 5894 5894 5893 5893 5894 5893 5893 5893 5894 5894 5894 5894 5894 5894 5895 5895 5895 5895 5895
5914 5914 5913 5912 5912 5911 5910 5909 5907 5906 5905 5904 5903 5902 5901 5900 5899 5898 5897 5896 5895 5895 5894 5893 5893 5893 5892 5892 5892 5892 5891 5891 5892 5892 5892 5892 5892 5892 5892 5893 5893 5893 5893
5916 5915 5915 5914 5913 5912 5911 5910 5908 5907 5906 5904 5903 5902 5901 5900 5899 5898 5897 5896 5895 5894 5893 5893 5892 5892 5892 5891 5890 5890 5890 5890 5890 5890 5890 5889 5890 5890 5890 5890 5891 5891 5891
5916 5916 5915 5914 5914 5913 5912 5911 5909 5908 5906 5905 5904 5903 5902 5900 5899 5898 5897 5896 5895 5894 5893 5892 5891 5891 5890 5890 5889 5888 5888 5888 5888 5888 5887 5887 5887 5887 5887 5888 5888 5888 5888
5917 5916 5915 5914 5914 5913 5912 5911 5910 5908 5907 5906 5904 5903 5902 5900 5899 5898 5897 5895 5894 5893 5892 5891 5890 5889 5888 5888 5887 5887 5886 5886 5886 5885 5885 5885 5885 5885 5884 5884 5885 5885 5885
5917 5916 5915 5914 5913 5912 5912 5911 5909 5908 5907 5905 5904 5903 5901 5900 5899 5897 5896 5894 5893 5891 5890 5889 5889 5888 5887 5886 5886 5885 5884 5884 5883 5883 5882 5882 5882 5881 5881 5881 5881 5882 5882
5917 5916 5915 5914 5913 5912 5911 5910 5909 5908 5907 5905 5904 5902 5901 5899 5898 5896 5895 5893 5891 5890 5889 5888 5887 5886 5885 5884 5883 5882 5882 5881 5880 5880 5879 5879 5879 5878 5878 5878 5878 5878 5878
5917 5916 5915 5914 5913 5912 5911 5910 5909 5907 5906 5905 5903 5901 5900 5898 5897 5895 5893 5891 5890 5888 5887 5886 5885 5884 5883 5882 5881 5880 5879 5878 5878 5877 5876 5876 5875 5875 5874 5874 5874 5874 5874
5917 5916 5915 5913 5912 5911 5911 5909 5908 5907 5905 5904 5902 5900 5899 5897 5895 5893 5892 5890 5888 5886 5885 5883 5882 5881 5880 5880 5879 5878 5877 5876 5874 5874 5873 5872 5872 5871 5871 5871 5870 5870 5870
5916 5915 5914 5913 5912 5910 5909 5908 5907 5906 5904 5903 5901 5899 5897 5896 5894 5891 5889 5887 5885 5883 5882 5881 5879 5878 5877 5877 5875 5875 5874 5873 5871 5870 5869 5868 5868 5867 5867 5866 5866 5866 5865
5915 5914 5913 5911 5910 5909 5908 5907 5905 5904 5903 5901 5899 5897 5895 5893 5891 5889 5887 5885 5883 5881 5879 5878 5876 5875 5874 5873 5872 5871 5870 5869 5868 5866 5865 5864 5863 5862 5862 5861 5861 5861 5861
5913 5913 5911 5910 5909 5908 5907 5905 5904 5902 5901 5899 5897 5895 5893 5891 5889 5887 5885 5882 5880 5878 5876 5875 5873 5872 5870 5869 5868 5867 5865 5864 5863 5862 5860 5859 5858 5857 5856 5856 5856 5855 5855
5911 5910 5909 5908 5907 5906 5905 5903 5902 5901 5899 5897 5895 5893 5891 5889 5887 5884 5882 5880 5877 5875 5873 5872 5870 5868 5867 5865 5864 5862 5861 5860 5858 5857 5856 5854 5853 5852 5851 5851 5851 5850 5850